SCP
0 0 0 0 0 0 0 0 0 0 0 0 0 0 0 0 0 0 0 0 0 0 0 0 0 0 0 0 0 0 0 0 0 0 0 0 0 0 0 0 0 0 0
0 0 0 0 0 0 0 0 0 0 0 0 0 0 0 0 0 0 0 0 0 0 0 0 0 0 0 0 0 0 0 0 0 0 0 0 0 0 0 0 0 0 0
0 0 0 0 0 0 0 0 0 0 0 0 0 0 0 0 0 0 0 0 0 0 0 0 0 0 0 0 0 0 0 0 0 0 0 0 0 0 0 0 0 0 0
0 0 0 0 0 0 0 0 0 0 0 0 0 0 0 0 0 0 0 0 0 0 0 0 0 0 0 0 0 0 0 0 0 0 0 0 0 0 0 0 0 0 0
0 0 0 0 0 0 0 0 0 0 0 0 0 0 0 0 0 0 0 0 0 0 0 0 0 0 0 0 0 0 0 0 0 0 0 0 0 0 0 0 0 0 0
0 0 0 0 0 0 0 0 1 1 1 1 0 0 0 0 0 0 0 0 0 0 0 0 0 0 0 0 0 0 0 0 0 0 0 0 0 0 0 0 0 0 0
0 0 0 0 0 0 0 0 0 1 1 1 1 1 0 0 0 0 0 0 0 0 0 0 0 0 0 0 0 0 0 0 0 0 0 0 0 0 0 0 0 0 0
0 0 0 0 0 0 0 0 0 0 1 1 1 1 1 0 0 0 0 0 0 0 0 0 0 0 0 0 0 0 0 0 0 0 0 0 0 0 0 0 0 0 0
0 0 0 0 0 0 0 0 0 0 0 0 1 1 1 1 0 0 0 0 0 0 0 0 0 0 0 0 0 0 0 0 0 0 0 0 0 0 0 0 0 0 0
0 0 0 0 0 0 0 0 0 0 0 0 0 0 1 0 0 0 0 0 0 0 0 0 0 0 0 0 0 0 0 0 0 0 0 0 0 0 0 0 0 0 0
0 0 0 0 0 0 0 0 0 0 0 0 0 0 0 0 0 0 0 0 0 0 0 0 0 0 0 0 0 0 0 0 0 0 0 0 0 0 0 0 0 0 0
0 0 0 0 0 0 0 0 0 0 0 0 0 0 0 0 0 0 0 0 0 0 0 0 0 0 0 0 0 0 0 0 0 0 0 0 0 0 0 0 0 0 0
0 0 0 0 0 0 0 0 0 0 0 0 0 0 0 0 0 0 0 0 0 0 0 0 0 0 0 0 0 0 0 0 0 0 0 0 0 0 0 0 0 0 0
0 0 0 0 0 0 0 0 0 0 0 0 0 0 0 0 0 0 0 0 0 0 0 0 0 0 0 0 0 0 0 0 0 0 0 0 0 0 0 0 0 0 0
0 0 0 0 0 0 0 0 0 0 0 0 0 0 0 0 0 0 0 0 0 0 0 0 0 0 0 0 0 0 0 0 0 0 0 0 0 0 0 0 0 0 0
0 0 0 0 0 0 0 0 0 0 0 0 0 0 0 0 0 0 0 0 0 0 0 0 0 0 0 0 0 0 0 0 0 0 0 0 0 0 0 0 0 0 0
0 0 0 0 0 0 0 0 0 0 0 0 0 0 0 0 0 0 0 0 0 0 0 0 0 0 0 0 0 0 0 0 0 0 0 0 0 0 0 0 0 0 0
0 0 0 0 0 0 0 0 0 0 0 0 0 0 0 0 0 0 0 0 0 0 0 0 0 0 0 0 0 0 0 0 0 0 0 0 0 0 0 0 0 0 0
0 0 0 0 0 0 0 0 0 0 0 0 0 0 0 0 0 0 0 0 0 0 0 0 0 0 0 0 0 0 0 0 0 0 0 0 0 0 0 0 0 0 0
0 0 0 0 0 0 0 0 0 0 0 0 0 0 0 0 0 0 0 0 0 0 0 0 0 0 0 0 0 0 0 0 0 0 0 0 0 0 0 0 0 0 0
0 0 0 0 0 0 0 0 0 0 0 0 0 0 0 0 0 0 0 0 0 0 0 0 0 0 0 0 0 0 0 0 0 0 0 0 0 0 0 0 0 0 0
0 0 0 0 0 0 0 0 0 0 0 0 0 0 0 0 0 0 0 0 0 0 0 0 0 0 0 0 0 0 0 0 0 0 0 0 0 0 0 0 0 0 0
0 0 0 0 0 0 0 0 0 0 0 0 0 0 0 0 0 0 0 0 0 0 0 0 0 0 0 0 0 0 0 0 0 0 0 0 0 0 0 0 0 0 0
0 0 0 0 0 0 0 0 0 -0 0 0 0 0 0 0 0 0 0 0 0 0 0 0 0 0 0 0 0 0 0 0 0 0 0 0 0 0 0 0 0 0 0
0 0 0 0 0 0 0 0 0 -0 -0 0 0 0 0 0 0 0 0 0 0 0 0 0 0 0 0 0 0 0 0 0 0 0 0 0 0 0 0 0 0 0 0
0 0 0 0 0 0 0 0 0 -0 -0 0 0 0 0 0 0 0 0 0 0 0 0 0 0 0 0 0 0 0 0 0 0 0 0 0 0 0 0 0 0 0 0
Wind_Speed
3 4 9 9 9 8 8 7 7 7 7 7 7 6 6 6 6 6 5 5 5 5 5 5 6 6 6 6 6 6 6 6 6 6 6 6 6 7 8 9 8 5 9
6 5 9 9 9 8 7 7 7 7 6 6 6 5 5 5 4 4 4 4 4 4 4 4 4 4 4 5 4 5 5 5 4 3 3 4 5 6 7 8 8 5 8
7 6 7 9 8 8 7 6 6 5 5 4 4 4 3 3 3 3 3 2 2 2 2 2 2 2 3 3 3 4 4 5 4 3 2 2 2 5 6 7 7 7 7
7 5 6 8 7 6 6 5 5 4 4 4 3 3 3 3 3 3 2 2 1 1 1 1 1 1 1 2 2 3 4 5 5 4 1 2 2 5 6 6 7 7 7
6 4 5 7 6 5 4 4 4 4 4 4 4 4 3 3 4 4 3 3 2 2 2 1 1 1 1 1 2 3 4 5 5 4 1 2 2 5 6 6 6 7 6
5 4 5 7 6 5 4 3 3 4 4 4 5 5 5 5 5 5 4 4 4 4 4 3 3 3 2 2 3 4 5 5 4 2 1 2 3 6 6 6 6 6 7
4 3 3 6 5 4 3 2 2 2 3 4 5 6 6 7 7 6 6 6 6 6 5 5 4 4 4 4 4 5 5 6 2 1 1 2 4 7 7 6 6 6 6
5 3 3 4 4 2 2 1 1 2 3 4 5 6 7 8 8 8 8 8 8 7 7 6 6 5 5 5 5 6 6 6 2 2 1 3 6 8 7 6 6 6 7
3 3 1 1 1 1 2 2 3 4 5 6 6 7 7 8 8 9 9 9 9 9 9 8 7 7 7 7 7 7 8 7 2 1 3 3 7 9 8 7 7 7 7
2 2 1 1 1 2 3 4 5 5 6 7 7 7 7 7 8 9 9 9 10 11 10 10 9 9 8 8 8 8 9 6 2 2 2 4 9 10 10 9 8 7 7
2 1 1 2 2 2 2 3 4 6 6 6 6 7 6 3 4 5 7 8 10 11 10 10 10 10 9 8 9 9 8 2 2 2 2 6 9 10 11 10 9 8 8
2 1 1 2 2 2 2 2 2 3 4 4 3 4 3 3 4 5 6 8 8 8 9 9 9 9 7 3 5 7 3 3 3 3 4 9 10 11 11 11 10 9 9
3 2 2 2 2 2 1 2 2 2 2 3 4 4 3 3 3 3 2 4 4 5 3 4 4 3 3 2 2 2 3 3 3 3 4 9 10 12 12 12 11 10 10
3 2 1 2 2 2 2 2 2 2 2 2 3 3 2 2 2 3 2 3 2 2 2 2 2 3 3 4 4 3 4 3 3 3 4 10 11 12 13 13 12 12 11
4 2 1 2 2 2 2 2 3 2 3 3 3 3 2 2 3 3 2 2 3 2 3 3 3 4 4 4 3 3 3 4 4 4 3 11 12 13 13 14 13 13 12
4 3 2 2 2 2 2 2 2 3 3 2 2 3 3 2 2 2 3 2 3 3 3 3 4 3 3 3 3 3 3 3 3 3 3 6 12 13 14 14 14 14 13
4 3 2 3 2 3 2 3 3 3 3 3 3 3 3 2 2 2 2 2 3 3 3 3 3 3 3 3 3 3 2 2 2 3 4 3 5 11 13 14 14 14 14
5 3 2 3 3 2 2 3 3 3 3 3 3 3 4 3 3 2 2 2 3 2 2 2 2 2 3 2 2 3 2 2 2 3 4 4 3 4 8 12 13 14 15
5 4 3 3 2 2 3 3 3 3 3 3 3 3 4 4 3 2 2 2 2 2 2 2 1 2 2 2 3 3 2 2 2 3 4 4 4 4 4 8 12 13 14
5 5 4 3 2 2 2 3 3 4 4 3 3 3 4 4 4 3 2 3 2 1 2 1 2 2 2 2 3 3 2 2 2 3 4 4 4 5 5 6 6 8 12
4 4 3 3 2 2 2 2 2 3 3 3 3 4 5 5 4 3 2 3 2 1 2 2 1 2 1 1 1 2 2 2 3 3 3 4 5 6 5 6 6 5 6
4 4 4 3 2 1 1 0 1 1 2 2 3 4 5 5 5 4 3 2 2 2 2 2 1 1 1 1 1 0 1 2 3 4 3 4 5 5 6 8 7 7 6
5 4 4 3 2 1 1 1 2 2 3 3 4 4 5 5 5 4 3 2 2 1 2 2 1 1 1 1 2 2 2 2 2 2 3 3 4 4 5 5 7 8 8
5 4 5 4 2 1 1 1 1 1 2 3 3 3 5 5 5 4 3 3 2 2 2 2 1 1 1 1 1 2 2 2 1 2 2 1 3 5 6 6 7 7 7
5 5 4 3 2 1 0 1 0 1 2 2 3 4 4 4 5 4 4 3 3 2 2 2 2 1 1 2 2 1 2 1 2 2 2 2 1 2 4 5 5 6 7
4 4 4 3 2 2 1 0 1 1 2 3 3 4 4 3 4 5 4 3 3 2 2 2 2 2 2 2 2 2 2 2 2 2 2 2 2 2 2 3 4 5 6
Wind_Direction
171 182 149 138 132 126 124 121 117 112 109 107 106 106 102 97 93 91 86 82 78 75 75 68 62 61 58 57 54 50 49 52 58 64 71 79 81 82 92 99 98 97 105
162 168 152 144 140 136 131 128 124 119 115 114 114 114 114 110 105 103 96 89 85 80 76 71 64 60 57 54 49 40 34 32 35 46 70 84 94 94 96 104 109 108 109
144 156 152 147 144 141 140 138 135 133 131 132 133 131 132 132 129 126 124 110 99 90 84 72 68 58 54 44 34 25 15 8 4 10 85 123 118 113 109 109 114 112 112
137 145 147 146 144 143 148 152 154 158 159 164 167 168 170 166 167 167 164 165 164 149 135 104 89 70 48 25 10 359 355 350 351 360 103 171 164 132 123 118 119 117 115
120 125 136 137 138 143 149 162 177 186 190 195 201 201 202 200 193 189 192 200 213 218 218 216 201 227 249 308 323 330 337 343 350 9 66 148 155 149 138 131 127 124 124
120 119 127 132 137 141 152 168 185 201 209 216 219 218 220 221 216 207 210 217 223 224 222 220 219 238 248 262 287 305 318 331 346 10 133 161 165 160 152 146 137 132 132
123 122 130 127 134 140 149 171 207 224 230 237 236 229 228 228 223 220 222 224 226 225 225 222 224 234 241 250 267 285 300 316 330 351 172 185 184 167 157 155 147 142 139
133 135 136 140 145 155 168 192 246 267 263 262 256 245 239 236 231 228 229 228 228 227 226 224 226 233 238 246 256 268 282 295 318 335 207 202 190 168 161 159 158 153 150
129 124 123 77 14 286 248 255 264 280 280 276 273 269 258 249 242 238 236 234 233 231 229 229 228 232 237 242 250 260 271 280 290 263 238 210 193 174 167 164 161 159 153
95 95 97 61 348 330 318 301 291 292 289 283 284 285 280 269 260 251 245 242 242 237 232 232 232 234 237 241 248 257 266 277 271 265 236 214 197 180 171 167 165 160 157
86 76 77 61 31 348 307 315 315 305 300 300 295 291 296 291 281 270 260 251 249 244 237 234 237 238 238 241 247 256 266 248 242 248 228 224 205 188 177 172 172 167 165
114 99 74 70 39 16 351 339 318 312 302 293 283 282 278 270 266 264 265 263 256 251 247 240 239 242 241 233 250 261 255 246 238 239 232 226 207 192 182 176 177 173 169
142 113 92 83 57 33 352 329 322 313 305 296 283 274 270 271 272 274 272 277 273 264 253 250 243 230 219 215 226 245 247 243 232 235 234 225 205 195 189 180 179 175 172
124 127 111 81 53 19 9 337 323 316 306 300 287 281 265 269 276 275 264 259 252 244 232 234 234 225 222 221 225 241 247 239 234 219 228 224 208 198 193 184 179 176 176
134 151 142 82 62 27 12 331 338 318 304 296 296 288 263 260 273 274 267 259 253 242 233 235 238 234 230 234 231 238 246 237 238 216 221 221 211 202 197 188 181 180 179
151 152 135 104 82 55 22 339 329 324 321 329 324 311 296 269 274 282 277 266 257 247 237 230 233 237 235 233 239 234 233 226 228 219 216 221 211 202 197 191 185 183 182
154 142 138 128 76 54 23 356 353 339 342 342 336 336 336 323 297 290 287 281 267 260 250 242 239 231 236 241 240 237 225 211 217 215 214 218 211 206 199 194 188 186 185
136 127 98 92 80 50 26 359 349 347 348 340 336 335 339 341 343 331 309 292 280 268 255 251 239 233 236 240 249 248 227 205 210 215 208 212 205 205 205 199 191 189 188
131 127 108 100 84 54 26 5 354 349 346 334 337 337 335 336 339 339 312 299 302 289 265 270 252 230 237 247 255 250 237 222 211 226 215 210 206 204 199 203 197 191 191
127 118 113 94 71 55 25 6 357 352 344 339 339 335 338 336 338 339 320 318 325 313 292 282 268 251 235 241 260 262 249 245 230 225 219 209 209 212 203 199 195 197 197
109 103 100 88 62 51 29 8 353 340 334 339 340 346 343 339 336 336 333 329 332 314 290 280 262 267 261 210 225 282 278 243 231 226 213 206 207 210 203 199 193 191 200
121 112 104 101 95 73 52 294 277 299 306 311 326 343 346 345 339 343 343 329 329 329 326 312 264 251 255 194 168 188 294 304 263 231 206 205 207 201 204 205 200 195 194
129 133 127 129 122 98 51 21 5 3 348 346 340 336 332 341 346 343 340 338 336 338 318 309 284 230 247 237 188 181 187 233 283 292 235 216 199 195 205 202 205 201 199
159 150 139 143 141 132 88 58 33 2 325 298 300 310 322 337 343 345 344 344 340 337 318 305 322 250 228 242 239 218 212 195 196 300 308 256 212 203 201 205 207 205 201
168 158 152 153 164 192 177 138 80 314 284 295 311 327 331 328 333 336 335 341 335 321 309 306 312 293 233 222 217 216 230 225 207 197 266 296 277 227 206 204 204 205 205
173 164 159 164 200 231 249 253 184 253 295 320 323 325 324 317 317 325 326 325 320 315 303 295 291 293 269 252 237 212 201 207 204 195 224 252 259 255 224 207 202 206 206